Regional Weather Roundup
Issued by NWS Jackson, KY

Home | Current Version | Previous Version | Text Only | Print | Product List | Glossary Off
Versions: 1 2 3 4 5 6 7 8 9 10 11 12 13 14 15 16 17 18 19 20 21 22 23 24 25 26 27 28 29 30 31 32 33 34 35 36 37 38 39 40 41 42 43 44 45 46 47 48 49 50

000
ASUS43 KJKL 301110
RWRJKL

EAST KENTUCKY HOURLY WEATHER ROUNDUP
NATIONAL WEATHER SERVICE JACKSON KY
700 AM EDT THU JUL 30 2015

NOTE: "FAIR" INDICATES FEW OR NO CLOUDS BELOW 12,000 FEET WITH
NO SIGNIFICANT WEATHER AND/OR OBSTRUCTIONS TO VISIBILITY.

* THESE REPORTS ARE NOT UNDER NWS QUALITY CONTROL AND MAY NOT
  REPORT WEATHER SUCH AS PRECIPITATION AND FOG.

KYZ079-080-083-085-087-088-110-112-115-119-120-301200
...EASTERN KENTUCKY...

CITY           SKY/WX    TMP DP  RH WIND       PRES   REMARKS
JACKSON        CLOUDY    72  69  90 CALM      30.05R
LONDON         MOCLDY    73  68  84 W6        30.05R
SOMERSET*      PTCLDY    70  70 100 CALM      30.06R
MONTICELLO*    CLOUDY    74  73  96 VRB3      30.08R
WILLIAMSBURG*  CLOUDY    70  70 100 CALM      30.06R
MIDDLESBORO*   CLOUDY    72  71  95 CALM      30.05R
HAZARD APT*    CLOUDY    73  72  94 SW3       30.05R
BLACK MTN*       N/A     64  64 100 N6          N/A
PIKEVILLE APT* CLOUDY    72  72 100 W3        30.04R
BIG SANDY*     CLOUDY    74  72  93 W3        30.03R
MOREHEAD APT*  PTSUNNY   72  70  94 NW5       30.05R FOG
$$

KYZ035-036-041-042-044-050-067-078-099-301200
...CENTRAL KENTUCKY...

CITY           SKY/WX    TMP DP  RH WIND       PRES   REMARKS
MT STERLING*   MOCLDY    70  70 100 CALM      30.06R
FLEMING/MASON* CLOUDY    73  70  88 N5        30.05R
DANVILLE*      CLOUDY    70  64  83 N8        30.07R
RICHMOND*      CLOUDY    72  68  88 NW5       30.05R
LEXINGTON      PTCLDY    69  64  84 NW7       30.06R
FRANKFORT      PTCLDY    68  63  84 NW7       30.05R
$$

KYZ091>093-OHZ055-061-077-WVZ005-015-034-035-042-301200
...SOUTHERN OHIO/WEST VIRGINIA...

CITY           SKY/WX    TMP DP  RH WIND       PRES   REMARKS
COVINGTON      MOCLDY    69  60  73 NW9       30.05R
COLUMBUS       MOCLDY    70  60  70 NW6       30.00R
DAYTON         PTCLDY    67  61  81 W6        30.05R
WILMINGTON     PTCLDY    70  61  73 NW6       30.03R
HUNTINGTON     CLOUDY    75  72  90 NW3       29.99R
CHARLESTON     CLOUDY    74  72  93 CALM      29.98S FOG
PINEVILLE*     CLOUDY    71  71 100 MISG      30.09R FOG
BECKLEY        CLOUDY    70  68  93 CALM      30.07R FOG
BLUEFIELD      CLOUDY    72  67  84 CALM      30.10R
$$

VAZ002-007-008-TNZ017-027-036-066-071-301200
...SOUTHWEST VIRGINIA/EAST TENNESSEE...

CITY           SKY/WX    TMP DP  RH WIND       PRES   REMARKS
WISE*          CLOUDY    72  72 100 W5        30.11R FOG
ABINGDON*      MOCLDY    72  70  94 CALM      30.06S FOG
BRISTOL        PTCLDY    72  70  93 CALM      30.03R FOG
KNOXVILLE      PTCLDY    77  73  87 CALM      30.01R
OAK RIDGE      CLEAR     75  71  87 CALM      30.03R
CROSSVILLE     CLOUDY    73  67  81 N5        30.08R
NASHVILLE      MOCLDY    77  72  84 N13       30.05R
$$

...KEY TO REMARKS...
VSB - VISIBILITY IN MILES
WCI - WIND CHILL INDEX
HX  - HEAT INDEX

$$



USA.gov is the U.S. government's official web portal to all federal, state and local government web resources and services.